Powrót do katalogu

THORAD AGENA D DEB

AktywnyLEO
NORAD 4968·DEBRIS·🇺🇸 United States

Wystrzelony Apr 8, 1970 z Vandenberg Space Force Base

Loading…

Następne Przeloty (najbliższe 24 godziny)

TLE

ŚwieżeSource: Space-Track

Epoka: Sep 14, 2026, 12:09 UTC

1 04968U 70025GN  26257.50643986  .00000123  00000-0  22024-3 0  9993
2 04968 100.1798 271.8011 0019976 158.1302 356.7266 13.62761322796579

Śledź THORAD AGENA D DEB w czasie rzeczywistym z AllMySat

Download on the App Store